Du Bois, PA

11:06 AM EDT on May 28, 2017 (GMT -0400)
Du Bois-Jefferson County

Weather History for KDUJ - July, 2013

Change the Weather History Date:

Friday, July 5, 2013

  Actual Average Record
Temperature  
Mean Temperature 76 °F 68 °F  
Max Temperature 83 °F 79 °F 89 °F (1988)
Min Temperature 68 °F 58 °F 46 °F (1968)
Degree Days  
Heating Degree Days 0 1  
Month to date heating degree days 0 5  
Since 1 June heating degree days 38 90  
Since 1 July heating degree days 0 5  
Cooling Degree Days 11 4  
Month to date cooling degree days 45 20  
Year to date cooling degree days 196 114  
Since 1 June cooling degree days 137 91  
Growing Degree Days 25 (Base 50)    
Moisture  
Dew Point 66 °F    
Average Humidity 76    
Maximum Humidity 90    
Minimum Humidity 62    
Precipitation  
Precipitation T in 0.14 in 1.41 in (2005)
Month to date precipitation 1.66 0.70  
Sea Level Pressure  
Sea Level Pressure 30.16 in    
Wind  
Wind Speed 5 mph (SW)    
Max Wind Speed 15 mph    
Max Gust Speed 22 mph    
Visibility 10 miles    
Events      
T = Trace of Precipitation, MM = Missing Value Source: NWS Daily Summary

Daily Weather History Graph

Daily Weather History Graph

Search for Another Location

Airport or City:

Trip Planner

Search our weather history database for the weather conditions in past years. The results will help you decide how hot, cold, wet, or windy it might be!

Date:

Astronomy

Jul. 05, 2013 Rise Set
Actual Time 5:48 AM EDT 8:51 PM EDT
Civil Twilight 5:15 AM EDT 9:24 PM EDT
Nautical Twilight 4:33 AM EDT 10:07 PM EDT
Astronomical Twilight 3:42 AM EDT 10:56 PM EDT
Moon 3:47 AM EDT (7/5) 6:44 PM EDT (7/5)
Length of Visible Light 16h 09m
Length of Day
15h 02m
Waning Crescent, 6% of the Moon is Illuminated
Jul 5
Waning Crescent
Jul 8
New
Jul 15
First Quarter
Jul 22
Full
Jul 29
Last Quarter

Hourly Weather History & Observations

Time (EDT) Temp. Heat Index Dew Point Humidity Pressure Visibility Wind Dir Wind Speed Gust Speed Precip Events Conditions
12:56 AM 71.1 °F - 68.0 °F 90% 30.17 in 9.0 mi Calm Calm - N/A   Clear
1:56 AM 71.1 °F - 66.9 °F 87% 30.17 in 10.0 mi Calm Calm - N/A   Clear
2:56 AM 71.1 °F - 66.9 °F 87% 30.16 in 10.0 mi SSE 3.5 mph - N/A   Clear
3:56 AM 70.0 °F - 66.9 °F 90% 30.16 in 9.0 mi Calm Calm - N/A   Clear
4:56 AM 69.1 °F - 66.0 °F 90% 30.16 in 10.0 mi South 3.5 mph - N/A   Clear
5:56 AM 70.0 °F - 66.0 °F 87% 30.16 in 10.0 mi South 3.5 mph - N/A   Clear
6:56 AM 70.0 °F - 66.0 °F 87% 30.16 in 10.0 mi Calm Calm - N/A   Clear
7:56 AM 71.1 °F - 66.0 °F 84% 30.17 in 10.0 mi South 3.5 mph - N/A   Clear
8:56 AM 75.9 °F - 66.0 °F 71% 30.17 in 10.0 mi SW 9.2 mph - N/A   Clear
9:56 AM 75.9 °F - 64.9 °F 69% 30.18 in 10.0 mi SW 9.2 mph - N/A   Clear
10:56 AM 78.1 °F - 66.9 °F 68% 30.18 in 10.0 mi SW 8.1 mph - N/A   Mostly Cloudy
11:36 AM 78.8 °F - 66.2 °F 65% 30.22 in 10.0 mi SW 13.8 mph - N/A   Scattered Clouds
11:56 AM 78.1 °F - 64.9 °F 64% 30.18 in 10.0 mi SW 11.5 mph 21.9 mph N/A   Clear
12:56 PM 79.0 °F - 66.9 °F 66% 30.18 in 10.0 mi SW 9.2 mph - N/A   Mostly Cloudy
1:56 PM 80.1 °F 82.7 °F 68.0 °F 67% 30.16 in 10.0 mi SW 8.1 mph - 0.00 in   Partly Cloudy
2:56 PM 81.0 °F 83.3 °F 66.9 °F 62% 30.15 in 10.0 mi WSW 10.4 mph - N/A   Mostly Cloudy
3:56 PM 79.0 °F - 66.0 °F 64% 30.13 in 10.0 mi WSW 8.1 mph - N/A   Mostly Cloudy
4:56 PM 79.0 °F - 70.0 °F 74% 30.13 in 10.0 mi WSW 5.8 mph - 0.00 in   Mostly Cloudy
5:56 PM 79.0 °F - 68.0 °F 69% 30.11 in 10.0 mi SW 6.9 mph - N/A   Mostly Cloudy
6:56 PM 81.0 °F 83.8 °F 68.0 °F 65% 30.11 in 10.0 mi SW 6.9 mph - N/A   Overcast
7:56 PM 78.1 °F - 64.9 °F 64% 30.12 in 10.0 mi SW 9.2 mph - N/A   Partly Cloudy
8:56 PM 75.0 °F - 64.9 °F 71% 30.13 in 10.0 mi SSW 3.5 mph - N/A   Clear
9:56 PM 73.0 °F - 64.9 °F 76% 30.14 in 10.0 mi Calm Calm - N/A   Clear
10:56 PM 72.0 °F - 64.9 °F 78% 30.15 in 10.0 mi Calm Calm - N/A   Overcast
11:56 PM 70.0 °F - 64.9 °F 84% 30.16 in 10.0 mi SW 3.5 mph - N/A   Scattered Clouds